Terminal Aerodrome Forecast
Issued by NWS

Home | Current Version | Previous Version | Text Only | Print | Product List | Glossary On
Versions: 1 2 3 4 5 6 7 8 9 10 11 12 13 14
000
FTUS46 KSEW 261100
TAFBFI
TAF
KBFI 261139Z 2612/2712 00000KT 1/4SM FG OVC001
     FM261800 VRB03KT 1SM BR BKN003
     FM261900 16006KT P6SM SKC
     FM270000 16006KT P6SM BKN200
     FM270900 16006KT 5SM BR BKN200=

USA.gov is the U.S. government's official web portal to all federal, state and local government web resources and services.